BERGEN/FLESLAND_AFB current weather conditions

sailwx.info

Wind from 140 at 7 knots

Air temperature 4.0° C
Visibility: greater than 2.7 NM
Dewpoint 3.0° C
Present weather: Light rain drizzle. Mist.

Last reported at 2017-Jan-22 16:20 UTC.
Time now 2017-Jan-22 18:23 UTC

Location: N 60°18' E 005°13'.
View on Google Maps.

See reports from other nearby stations

  
Tides and Currents Weather Stations Pressure Air Temp Water Temp Dewpoint Dewpoint Depression Visibility Wind Speed Wind Dir Waves Ship Positions
date/time (UTC)wind fromknots sea level pressurealtimeterstation pressurevisibilityair tempwater tempwave heightnotes
2017-Jan-22 17:20 140 7 5.4 4.0 Light rain drizzle.
2017-Jan-22 16:50 140 7 5.4 4.0
2017-Jan-22 16:20 140 7 2.7 4.0 Light rain drizzle. Mist.
2017-Jan-22 15:50 140 6 5.4 4.0
2017-Jan-22 15:20 150 8 5.4 4.0 Light drizzle.
2017-Jan-22 14:50 150 9 5.4 4.0 Light rain.
2017-Jan-22 14:20 150 7 5.4 4.0 Light rain.
2017-Jan-22 13:50 150 8 5.4 4.0 Light drizzle.
2017-Jan-22 13:20 150 8 5.4 4.0 Showers in the vicinity.
2017-Jan-22 12:50 140 7 5.4 4.0 Light rain.
2017-Jan-22 12:20 140 7 2.7 4.0 Drizzle. Mist.
2017-Jan-22 11:50 150 8 2.7 4.0 Drizzle. Mist.
2017-Jan-22 11:20 140 7 5.4 4.0 Light drizzle.
2017-Jan-22 10:50 150 6 4.9 4.0 Showers in the vicinity.
2017-Jan-22 10:20 140 7 4.3 4.0 Light drizzle.
2017-Jan-22 09:50 140 7 5.4 3.0 Showers in the vicinity.
2017-Jan-22 09:20 140 6 4.9 4.0 Drizzle.
2017-Jan-22 08:50 130 7 4.9 3.0 Drizzle.
2017-Jan-22 08:20 140 7 4.9 3.0 Drizzle.
2017-Jan-22 07:50 130 6 5.4 3.0
2017-Jan-22 07:20 140 6 5.4 4.0 Light drizzle.
2017-Jan-22 06:50 140 6 3.8 4.0 Light drizzle.
2017-Jan-22 06:20 150 6 5.4 4.0
2017-Jan-22 05:50 150 6 5.4 4.0 Light drizzle.
2017-Jan-22 05:20 140 6 5.4 4.0 Light drizzle.
2017-Jan-22 04:50 140 6 5.4 4.0
2017-Jan-22 04:20 150 6 3.8 4.0 Light drizzle.
2017-Jan-22 03:50 150 5 4.3 4.0 Drizzle.
2017-Jan-22 02:50 140 5 4.3 4.0 Light drizzle.
2017-Jan-22 01:50 150 5 5.4 4.0
2017-Jan-22 00:50 160 5 3.2 4.0 Light drizzle.
2017-Jan-21 23:50 130 5 4.9 4.0 Light drizzle.
2017-Jan-21 22:50 130 5 4.9 4.0
2017-Jan-21 22:20 130 2 2.4 4.0 Mist.
2017-Jan-21 21:50 150 4 1.1 4.0 Mist.
2017-Jan-21 21:20 140 4 0.5 4.0 Fog.
2017-Jan-21 20:50 150 5 0.3 4.0 Fog.
2017-Jan-21 20:20 180 5 0.4 4.0 Fog.
2017-Jan-21 19:50 190 5 4.9 5.0 Fog in the vicinity.
2017-Jan-21 19:20 210 2 4.9 5.0 Fog in the vicinity.
2017-Jan-21 18:50 160 2 4.9 5.0
2017-Jan-21 18:20 110 2 4.9 5.0
2017-Jan-21 17:50 130 2 5.4 5.0
2017-Jan-21 17:20 110 2 4.9 5.0
2017-Jan-21 16:50 5.4 5.0
2017-Jan-21 16:20 5.4 5.0
2017-Jan-21 15:50 120 2 2.7 5.0
2017-Jan-21 15:20 120 2 0.5 6.0
2017-Jan-21 14:50 130 4 0.3 6.0 Fog.
2017-Jan-21 14:20 160 4 0.7 6.0 Fog.
2017-Jan-21 13:50 140 4 0.9 6.0 Partial fog.
2017-Jan-21 13:20 150 5 1.0 6.0 Partial fog.
2017-Jan-21 12:50 170 6 0.2 6.0 Fog.
2017-Jan-21 12:20 190 2 2.7 6.0 Patches of fog.
2017-Jan-21 11:50 4.9 7.0 Patches of fog.
2017-Jan-21 11:20 4.3 6.0 Patches of fog.
2017-Jan-21 10:50 5.4 6.0 Patches of fog.
2017-Jan-21 10:20 5.4 6.0
2017-Jan-21 09:50 120 0 5.4 6.0
2017-Jan-21 09:20 130 2 4.9 6.0
2017-Jan-21 08:50 4.9 5.0 Fog in the vicinity.
2017-Jan-21 08:20 4.9 6.0 Patches of fog.
2017-Jan-21 07:50 5.4 6.0 Patches of fog.
2017-Jan-21 07:20 130 1 5.4 6.0 Fog in the vicinity.
2017-Jan-21 06:50 5.4 6.0 Fog in the vicinity.
2017-Jan-21 06:20 120 2 5.4 6.0
2017-Jan-21 05:50 140 2 4.9 6.0 Light drizzle.
2017-Jan-21 05:20 4.9 6.0 Drizzle.
2017-Jan-21 04:50 4.3 6.0 Light drizzle.
2017-Jan-21 04:20 4.9 6.0 Drizzle.
2017-Jan-21 03:50 5.4 6.0
2017-Jan-21 02:50 5.4 6.0
2017-Jan-21 01:50 5.4 6.0
2017-Jan-21 00:50 090 1 5.4 6.0
2017-Jan-20 23:50 5.4 7.0
2017-Jan-20 22:50 290 4 5.4 7.0
2017-Jan-20 22:20 5.4 7.0
2017-Jan-20 21:50 5.4 7.0
2017-Jan-20 21:20 310 5 5.4 7.0
2017-Jan-20 20:50 310 6 5.4 7.0
2017-Jan-20 20:20 5.4 7.0 Showers in the vicinity.
2017-Jan-20 19:50 300 5 3.2 7.0 Light drizzle.
2017-Jan-20 19:20 310 7 3.8 7.0 Light drizzle.
2017-Jan-20 18:50 310 8 5.4 8.0 Light drizzle.
2017-Jan-20 18:20 310 7 4.9 8.0 Light drizzle.